Regional Weather Roundup
Issued by NWS

Home | Current Version | Previous Version | Text Only | Print | Product List | Glossary Off
Versions: 1 2 3 4 5 6 7 8 9 10 11 12 13 14 15 16 17 18 19 20 21 22 23 24 25 26 27

000
ASUS45 KBOU 261307
RWRCO

WEATHER ROUNDUP FOR COLORADO
NATIONAL WEATHER SERVICE DENVER/BOULDER CO
700 AM MDT TUE JUL 26 2016

NOTE: "FAIR" INDICATES FEW OR NO CLOUDS BELOW 12000 FEET WITH NO
SIGNIFICANT WEATHER AND/OR OBSTRUCTIONS TO VISIBILITY.

COZ001>005-013-030-031-261400-
...NORTHWEST COLORADO...

CITY           SKY/WX    TMP DP  RH WIND       PRES   REMARKS
CRAIG          FAIR      53  42  66 CALM      30.28R
HAYDEN         FAIR      57  36  44 CALM      30.30R
MEEKER         FAIR      54  44  69 NE5       30.30R
MOUNT WERNER   NOT AVBL
STEAMBOAT SPGS FAIR      54  39  55 CALM      30.33R
WALDEN         FAIR      50  34  53 E6        30.42R
$$

COZ006>008-011-261400-
...WEST CENTRAL VALLEYS...

CITY           SKY/WX    TMP DP  RH WIND       PRES   REMARKS
GRAND JUNCTION FAIR      70  44  39 E6        30.16R
MONTROSE       FAIR      66  46  48 S5        30.26R
EAGLE          FAIR      57  41  54 CALM      30.36R
RIFLE          FAIR      68  42  38 CALM      30.23R
DELTA          FAIR      69  47  44 NE7       30.22R
NUCLA          FAIR     N/A N/A N/A SE8       30.30R
$$

COZ017>023-064>068-261400-
...SOUTHWEST COLORADO...

CITY           SKY/WX    TMP DP  RH WIND       PRES   REMARKS
DURANGO        FAIR      64  49  57 NE6       30.35R
CORTEZ         FAIR      68  52  56 NE7       30.26S
PAGOSA SPRINGS FAIR      58  46  64 CALM      30.43R
TELLURIDE      FAIR      57  42  57 SE3       30.53R
WOLF CREEK PAS FAIR      46  41  81 SW8       30.74S
$$

COZ009-010-012-014-032>034-037-058>063-261400-
...CENTRAL COLORADO...

CITY           SKY/WX    TMP DP  RH WIND       PRES   REMARKS
ASPEN          FAIR      59  40  49 SW6       30.40R
BUENA VISTA    FAIR      55  40  58 NW7       30.44S
COPPER MTN     FAIR      54  30  40 W6        30.74R
BERTHOUD PASS  FAIR      46  32  57 N16       30.75S
COTTONWOOD PAS FAIR      61  32  33 NW3       30.56S
GUNNISON       FAIR      50  43  76 CALM      30.47R
KREMMLING      FAIR      52  43  71 CALM      30.41R
LEADVILLE      FAIR      45  37  73 NE5       30.57R
MONARCH PASS   FAIR      48  37  66 SW13      30.82S
SALIDA         FAIR      61  45  55 NW10      30.48S
SUNLIGHT       MOCLDY    59  34  38 CALM      30.65R
WILKERSON PASS FAIR      52  36  54 W8        30.68R
$$

COZ069>075-261400-
...SAN LUIS VALLEY/SANGRE DE CRISTO MOUNTAINS...

CITY           SKY/WX    TMP DP  RH WIND       PRES   REMARKS
ALAMOSA        FAIR      55  47  74 SE7       30.39S
LA VETA PASS   FAIR      52  43  71 S6        30.56S
SAGUACHE       NOT AVBL
$$

COZ035-036-038>040-261400-
...NORTHERN COLORADO FRONT RANGE...

CITY           SKY/WX    TMP DP  RH WIND       PRES   REMARKS
DENVER INTL AP PTSUNNY   67  52  58 W7        30.15R
DMNS CITY PARK   N/A     68  54  62 SE2       30.15S
AURORA         MOSUNNY   67  47  48 SW9       30.18S
FRONT RANGE AP PTSUNNY   68  48  49 SW9       30.16
ERIE MUNI ARPT FAIR      61  53  76 S3        30.14R
BOULDER MUN AP FAIR      64  50  59 S5        30.14S
CENTENNIAL     FAIR      73  43  33 SW9       30.19R
BROOMFIELD     PTSUNNY   63  50  63 W3        30.18R
LONGMONT       FAIR      60  51  71 CALM      30.15R
$$

COZ041-046-047-076>085-087-088-261400-
...PIKES PEAK/PALMER DIVIDE AND SOUTHERN FOOTHILLS...

CITY           SKY/WX    TMP DP  RH WIND       PRES   REMARKS
COLO. SPRINGS  FAIR      66  47  50 SE13      30.26R
A. F. ACADEMY  FAIR      72  43  36 NE7       30.25S
SCHRIEVER AFB  NOT AVBL
ELLICOTT       FAIR     N/A N/A N/A SE10      30.24R
FALCON         FAIR      68  42  39 S6        30.30R
FORT CARSON    FAIR      61  52  71 S6        30.23R
LIMON          NOT AVBL
MONUMENT HILL  FAIR      63  45  51 SW10      30.31R
TRINIDAD       NOT AVBL
$$

COZ042>045-048>051-090-091-261400-
...NORTHEAST COLORADO...

CITY           SKY/WX    TMP DP  RH WIND       PRES   REMARKS
GREELEY ARPT   FAIR      59  55  88 N3        30.13S
AKRON          FAIR      63  60  90 S13       30.14R
BURLINGTON     CLOUDY    68  64  87 S13       30.16R FOG
WRAY           CLOUDY    68  64  88 S8        30.13S
STERLING       FAIR      64  61  88 SW7       30.09R
HOLYOKE        CLOUDY    66  64  94 W14G21    30.12F
FORT MORGAN    FAIR      62  52  69 SE6       30.11S
$$

COZ086-089-092>099-261400-
...SOUTHEAST COLORADO...

CITY           SKY/WX    TMP DP  RH WIND       PRES   REMARKS
PUEBLO         FAIR      62  58  86 E9        30.16R
LA JUNTA       FAIR      67  55  65 S7        30.14R
LAMAR          FAIR      70  64  81 SE10      30.11S
SPRINGFIELD      N/A     64  61  90 CALM      30.18S
$$




USA.gov is the U.S. government's official web portal to all federal, state and local government web resources and services.